Weather History for KMZZ - October, 2012

Change the Weather History Date:

Wednesday, October 24, 2012

  Actual Average (KMIE) Record (KMIE)
Temperature  
Mean Temperature 68 °F 51 °F  
Max Temperature 76 °F 61 °F 80 °F (1963)
Min Temperature 59 °F 41 °F 19 °F (1981)
Degree Days  
Heating Degree Days 0 14  
Month to date heating degree days 258  
Since 1 July heating degree days 359  
Cooling Degree Days 2 0  
Month to date cooling degree days 13  
Year to date cooling degree days 952  
Growing Degree Days 18 (Base 50)    
Moisture  
Dew Point 54 °F    
Average Humidity 64    
Maximum Humidity 77    
Minimum Humidity 49    
Precipitation  
Precipitation 0.00 in 0.09 in 1.66 in (2001)
Month to date precipitation 2.28  
Year to date precipitation 33.15  
Sea Level Pressure  
Sea Level Pressure 30.02 in    
Wind  
Wind Speed 8 mph (SSW)    
Max Wind Speed 14 mph    
Max Gust Speed 18 mph    
Visibility 9 miles    
Events      
T = Trace of Precipitation, MM = Missing Value Source: NWS Daily Summary

Daily Weather History Graph

Daily Weather History Graph

Search for Another Location

Airport or City:

Trip Planner

Search our weather history database for the weather conditions in past years. The results will help you decide how hot, cold, wet, or windy it might be!

Date:

Astronomy

Oct. 24, 2012 Rise Set
Actual Time 8:04 AM EDT 6:48 PM EDT
Civil Twilight 7:36 AM EDT 7:16 PM EDT
Nautical Twilight 7:04 AM EDT 7:48 PM EDT
Astronomical Twilight 6:32 AM EDT 8:20 PM EDT
Moon 4:05 PM EDT (10/24) 2:57 AM EDT (10/24)
Length of Visible Light 11h 40m
Length of Day
10h 44m
Waxing Gibbous, 76% of the Moon is Illuminated
Oct 24
Waxing Gibbous
Oct 29
Full
Nov 6
Last Quarter
Nov 13
New
Nov 20
First Quarter

Hourly Weather History & Observations

Time (EDT) Temp. Dew Point Humidity Pressure Visibility Wind Dir Wind Speed Gust Speed Precip Events Conditions
12:35 AM 63.0 °F 55.8 °F 77% 30.01 in 10.0 mi SSE 5.8 mph - N/A   Overcast
12:55 AM 63.0 °F 55.6 °F 77% 30.01 in 10.0 mi South 4.6 mph - N/A   Overcast
1:15 AM 63.0 °F 55.0 °F 75% 30.01 in 10.0 mi South 5.8 mph - N/A   Overcast
1:35 AM 63.1 °F 54.5 °F 73% 30.01 in 7.0 mi South 8.1 mph - N/A   Overcast
1:55 AM 63.3 °F 54.1 °F 72% 30.01 in 10.0 mi South 8.1 mph - N/A   Overcast
2:15 AM 63.5 °F 53.8 °F 71% 30.02 in 10.0 mi South 6.9 mph - N/A   Overcast
2:35 AM 63.3 °F 53.6 °F 71% 30.02 in 10.0 mi South 5.8 mph - N/A   Overcast
2:55 AM 62.8 °F 53.6 °F 72% 30.02 in 10.0 mi South 5.8 mph - N/A   Overcast
3:15 AM 62.1 °F 53.6 °F 74% 30.02 in 10.0 mi SSW 4.6 mph - N/A   Overcast
3:35 AM 62.1 °F 52.7 °F 71% 30.02 in 10.0 mi South 6.9 mph - N/A   Mostly Cloudy
4:15 AM 60.6 °F 52.0 °F 73% 30.02 in 7.0 mi South 8.1 mph - N/A   Mostly Cloudy
4:35 AM 60.1 °F 51.8 °F 74% 30.02 in 10.0 mi South 8.1 mph - N/A   Mostly Cloudy
4:55 AM 60.1 °F 51.6 °F 74% 30.01 in 10.0 mi South 8.1 mph - N/A   Scattered Clouds
5:15 AM 60.1 °F 51.1 °F 72% 30.01 in 10.0 mi South 6.9 mph - N/A   Scattered Clouds
5:35 AM 59.4 °F 51.1 °F 74% 30.02 in 10.0 mi South 5.8 mph - N/A   Scattered Clouds
5:55 AM 59.2 °F 51.1 °F 74% 30.02 in 10.0 mi South 4.6 mph - N/A   Mostly Cloudy
6:15 AM 59.0 °F 50.7 °F 74% 30.03 in 7.0 mi South 4.6 mph - N/A   Scattered Clouds
6:35 AM 59.5 °F 50.9 °F 73% 30.03 in 10.0 mi South 5.8 mph - N/A   Mostly Cloudy
6:55 AM 60.1 °F 50.7 °F 71% 30.03 in 10.0 mi South 6.9 mph - N/A   Overcast
7:15 AM 60.4 °F 50.5 °F 70% 30.04 in 10.0 mi South 6.9 mph - N/A   Overcast
7:35 AM 60.1 °F 50.5 °F 71% 30.04 in 10.0 mi SSW 5.8 mph - N/A   Mostly Cloudy
7:55 AM 59.7 °F 50.5 °F 72% 30.04 in 10.0 mi South 5.8 mph - N/A   Mostly Cloudy
8:15 AM 59.5 °F 50.4 °F 72% 30.04 in 7.0 mi South 5.8 mph - N/A   Scattered Clouds
8:35 AM 59.2 °F 50.4 °F 73% 30.04 in 10.0 mi South 8.1 mph - N/A   Scattered Clouds
8:55 AM 59.4 °F 50.2 °F 72% 30.05 in 7.0 mi SSW 8.1 mph - N/A   Clear
9:35 AM 61.0 °F 51.1 °F 70% 30.06 in 10.0 mi South 9.2 mph - N/A   Clear
9:55 AM 62.1 °F 51.6 °F 69% 30.06 in 10.0 mi South 9.2 mph - N/A   Clear
10:15 AM 63.3 °F 52.2 °F 67% 30.06 in 10.0 mi SSW 12.7 mph - N/A   Clear
10:35 AM 64.4 °F 52.7 °F 66% 30.06 in 10.0 mi SSW 10.4 mph - N/A   Clear
10:55 AM 65.5 °F 53.8 °F 66% 30.05 in 7.0 mi SSW 13.8 mph - N/A   Clear
11:15 AM 66.6 °F 54.1 °F 64% 30.05 in 10.0 mi SSW 10.4 mph - N/A   Clear
11:35 AM 67.8 °F 55.0 °F 64% 30.05 in 10.0 mi SW 12.7 mph - N/A   Clear
11:55 AM 68.7 °F 55.4 °F 62% 30.04 in 10.0 mi SSW 10.4 mph - N/A   Clear
12:15 PM 70.0 °F 55.9 °F 61% 30.05 in 10.0 mi SW 12.7 mph 16.1 mph N/A   Clear
12:35 PM 70.9 °F 56.3 °F 60% 30.05 in 10.0 mi SW 9.2 mph - N/A   Clear
12:55 PM 71.6 °F 56.7 °F 59% 30.04 in 10.0 mi SSW 10.4 mph - N/A   Clear
1:15 PM 72.3 °F 56.7 °F 58% 30.04 in 10.0 mi South 9.2 mph - N/A   Clear
1:35 PM 73.0 °F 57.0 °F 57% 30.03 in 7.0 mi SSW 11.5 mph - N/A   Clear
1:55 PM 73.6 °F 57.2 °F 56% 30.02 in 10.0 mi SW 12.7 mph - N/A   Clear
2:15 PM 74.1 °F 57.6 °F 56% 30.01 in 7.0 mi SSW 11.5 mph 16.1 mph N/A   Clear
2:35 PM 74.7 °F 57.2 °F 54% 30.01 in 10.0 mi SSW 10.4 mph - N/A   Clear
2:55 PM 75.0 °F 57.6 °F 54% 30.00 in 10.0 mi SSW 10.4 mph - N/A   Clear
3:15 PM 75.6 °F 57.4 °F 53% 30.00 in 7.0 mi SSW 9.2 mph - N/A   Clear
3:35 PM 75.9 °F 57.7 °F 53% 30.00 in 10.0 mi SW 13.8 mph - N/A   Clear
3:55 PM 76.1 °F 58.3 °F 54% 29.99 in 10.0 mi SSW 11.5 mph - N/A   Clear
4:15 PM 76.5 °F 58.3 °F 53% 29.99 in 7.0 mi SSW 10.4 mph - N/A   Clear
4:35 PM 76.6 °F 57.9 °F 52% 29.99 in 10.0 mi SSW 13.8 mph 18.4 mph N/A   Clear
5:15 PM 76.6 °F 56.1 °F 49% 29.99 in 7.0 mi SSW 13.8 mph - N/A   Clear
5:35 PM 76.3 °F 55.9 °F 49% 29.98 in 10.0 mi SSW 12.7 mph - N/A   Clear
5:55 PM 76.1 °F 56.3 °F 50% 29.98 in 10.0 mi South 9.2 mph - N/A   Clear
6:15 PM 75.2 °F 56.3 °F 52% 29.98 in 7.0 mi South 8.1 mph - N/A   Clear
6:35 PM 73.8 °F 55.8 °F 53% 29.98 in 7.0 mi South 9.2 mph - N/A   Clear
6:55 PM 72.1 °F 54.7 °F 54% 29.98 in 7.0 mi South 9.2 mph - N/A   Clear
7:15 PM 70.5 °F 53.2 °F 54% 29.98 in 7.0 mi South 9.2 mph - N/A   Clear
7:35 PM 68.7 °F 52.7 °F 57% 29.99 in 10.0 mi South 6.9 mph - N/A   Clear
7:55 PM 67.5 °F 52.7 °F 59% 29.99 in 10.0 mi South 8.1 mph - N/A   Clear
8:15 PM 67.8 °F 52.7 °F 58% 29.99 in 7.0 mi South 10.4 mph - N/A   Clear
8:35 PM 67.6 °F 52.3 °F 58% 29.99 in 7.0 mi South 9.2 mph - N/A   Clear
9:15 PM 66.6 °F 51.3 °F 58% 30.00 in 10.0 mi South 9.2 mph - N/A   Clear
9:35 PM 65.3 °F 51.3 °F 60% 30.00 in 7.0 mi South 9.2 mph - N/A   Clear
9:55 PM 64.8 °F 50.9 °F 61% 30.00 in 10.0 mi South 8.1 mph - N/A   Clear
10:15 PM 63.7 °F 51.3 °F 64% 29.99 in 10.0 mi South 9.2 mph - N/A   Clear
10:35 PM 63.3 °F 51.8 °F 66% 30.00 in 10.0 mi South 8.1 mph - N/A   Clear
10:55 PM 63.3 °F 51.8 °F 66% 30.00 in 10.0 mi South 9.2 mph - N/A   Clear
11:15 PM 63.9 °F 52.0 °F 65% 30.01 in 7.0 mi South 8.1 mph - N/A   Clear
11:35 PM 63.3 °F 52.2 °F 67% 30.00 in 10.0 mi South 9.2 mph - N/A   Clear
11:55 PM 63.3 °F 52.2 °F 67% 30.01 in 7.0 mi South 9.2 mph - N/A   Clear